"read_dt","SO2 (ppb)","flags","PMT voltage (V)","lamp voltage (V)","lamp intensity (Hz)","internal temp (C)","react chamber temp (C)","sample flow (l/min)","pres (mmHg)","SO2 bkg (ppb)","SO2 coefficient"
2014-05-14 00:00:00,2815E-2,5C000410,-0724,1065,9972,027.7,045.3,0.156,757.2,01.16,0.508
2014-05-14 00:01:00,2826E-2,5C000410,-0724,1065,9832,027.8,045.3,0.156,757.2,01.16,0.508
2014-05-14 00:02:00,2903E-2,5C000410,-0724,1065,9844,027.7,045.3,0.156,757.3,01.16,0.508
2014-05-14 00:03:00,2837E-2,5C000410,-0724,1066,9856,027.7,045.3,0.156,757.3,01.16,0.508
2014-05-14 00:04:00,2799E-2,5C000410,-0724,1066,9795,027.7,045.3,0.156,757.2,01.16,0.508
2014-05-14 00:05:00,2817E-2,5C000410,-0724,1066,9845,027.7,045.3,0.156,757.2,01.16,0.508
2014-05-14 00:06:00,2866E-2,5C000410,-0724,1065,9833,027.8,045.3,0.156,757.3,01.16,0.508
2014-05-14 00:07:00,2822E-2,5C000410,-0724,1066,9807,027.7,045.3,0.156,757.2,01.16,0.508
2014-05-14 00:08:00,2847E-2,5C000410,-0724,1063,9905,027.8,045.3,0.156,757.2,01.16,0.508
2014-05-14 00:09:00,2816E-2,5C000410,-0724,1065,9945,027.8,045.3,0.156,757.2,01.16,0.508
2014-05-14 00:10:00,2835E-2,5C000410,-0724,1066,9900,027.8,045.3,0.156,757.2,01.16,0.508
2014-05-14 00:11:00,2861E-2,5C000410,-0724,1066,9762,027.8,045.3,0.156,757.2,01.16,0.508
2014-05-14 00:12:00,2841E-2,5C000410,-0724,1064,9825,027.8,045.3,0.156,757.1,01.16,0.508
2014-05-14 00:13:00,2900E-2,5C000410,-0724,1064,9950,027.8,045.3,0.156,757.2,01.16,0.508
2014-05-14 00:14:00,2850E-2,5C000410,-0724,1065,9920,027.8,045.3,0.156,757.2,01.16,0.508
2014-05-14 00:15:00,2875E-2,5C000410,-0724,1064,9857,027.8,045.3,0.156,757.2,01.16,0.508
2014-05-14 00:16:00,2831E-2,5C000410,-0724,1065,9869,027.8,045.3,0.156,757.2,01.16,0.508
2014-05-14 00:17:00,2885E-2,5C000410,-0724,1065,9910,027.8,045.3,0.156,757.2,01.16,0.508
2014-05-14 00:18:00,2846E-2,5C000410,-0724,1064,9857,027.8,045.3,0.156,757.2,01.16,0.508
2014-05-14 00:19:00,2823E-2,5C000410,-0724,1066,10008,027.8,045.3,0.156,757.1,01.16,0.508
2014-05-14 00:20:00,2855E-2,5C000410,-0724,1065,9919,027.8,045.3,0.156,757.1,01.16,0.508
2014-05-14 00:21:00,2843E-2,5C000410,-0724,1065,9728,027.8,045.3,0.156,757.1,01.16,0.508
2014-05-14 00:22:00,2888E-2,5C000410,-0724,1065,9715,027.8,045.3,0.156,757.2,01.16,0.508
2014-05-14 00:23:00,2826E-2,5C000410,-0724,1064,9931,027.8,045.3,0.156,757.1,01.16,0.508
2014-05-14 00:24:00,2814E-2,5C000410,-0724,1066,9970,027.8,045.3,0.156,757.1,01.16,0.508
2014-05-14 00:25:00,2844E-2,5C000410,-0724,1064,9716,027.8,045.3,0.156,757.1,01.16,0.508
2014-05-14 00:26:00,2800E-2,5C000410,-0724,1064,9880,027.9,045.3,0.156,757.1,01.16,0.508
2014-05-14 00:27:00,2839E-2,5C000410,-0724,1065,9880,027.8,045.3,0.156,757.2,01.16,0.508
2014-05-14 00:28:00,2832E-2,5C000410,-0724,1065,9938,027.8,045.3,0.156,757.2,01.16,0.508
2014-05-14 00:29:00,2798E-2,5C000410,-0724,1064,9940,027.9,045.3,0.155,757.2,01.16,0.508
2014-05-14 00:30:00,2839E-2,5C000410,-0724,1065,9915,027.9,045.3,0.155,757.2,01.16,0.508
2014-05-14 00:31:00,2812E-2,5C000410,-0724,1065,9855,027.9,045.3,0.156,757.2,01.16,0.508
2014-05-14 00:32:00,2882E-2,5C000410,-0724,1065,9699,027.9,045.3,0.155,757.2,01.16,0.508
2014-05-14 00:33:00,2855E-2,5C000410,-0724,1066,9891,027.9,045.3,0.155,757.2,01.16,0.508
2014-05-14 00:34:00,2857E-2,5C000400,-0724,1065,9820,027.9,045.3,0.155,757.2,01.16,0.508
2014-05-14 00:35:00,2850E-2,5C000410,-0724,1066,10035,027.9,045.3,0.155,757.2,01.16,0.508
2014-05-14 00:36:00,2838E-2,5C000410,-0724,1066,9861,027.9,045.3,0.155,757.2,01.16,0.508
2014-05-14 00:37:00,2802E-2,5C000410,-0724,1065,9815,028.0,045.3,0.155,757.2,01.16,0.508
2014-05-14 00:38:00,2812E-2,5C000410,-0724,1065,9846,027.9,045.3,0.155,757.1,01.16,0.508
2014-05-14 00:39:00,2865E-2,5C000410,-0724,1066,9925,027.9,045.3,0.155,757.1,01.16,0.508
2014-05-14 00:40:00,2841E-2,5C000410,-0724,1066,9794,028.0,045.3,0.155,757.2,01.16,0.508
2014-05-14 00:41:00,2824E-2,5C000410,-0724,1066,9934,027.9,045.3,0.155,757.2,01.16,0.508
2014-05-14 00:42:00,2830E-2,5C000410,-0724,1064,9776,027.9,045.3,0.155,757.1,01.16,0.508
2014-05-14 00:43:00,2826E-2,5C000410,-0724,1065,9690,028.0,045.3,0.155,757.1,01.16,0.508
2014-05-14 00:44:00,2777E-2,5C000410,-0724,1065,9808,028.0,045.3,0.155,757.1,01.16,0.508
2014-05-14 00:45:00,2831E-2,5C000410,-0724,1066,9958,028.0,045.3,0.155,757.1,01.16,0.508
2014-05-14 00:46:00,2809E-2,5C000410,-0724,1065,9841,028.0,045.3,0.155,757.2,01.16,0.508
2014-05-14 00:47:00,2808E-2,5C000410,-0724,1066,9710,028.0,045.3,0.155,757.2,01.16,0.508
2014-05-14 00:48:00,2824E-2,5C000410,-0724,1065,9851,028.0,045.3,0.155,757.2,01.16,0.508
2014-05-14 00:49:00,2813E-2,5C000410,-0724,1066,9903,028.0,045.3,0.155,757.1,01.16,0.508
2014-05-14 00:50:00,2818E-2,5C000410,-0724,1066,9886,028.0,045.3,0.155,757.2,01.16,0.508
2014-05-14 00:51:00,2809E-2,5C000410,-0724,1065,9847,028.0,045.3,0.155,757.2,01.16,0.508
2014-05-14 00:52:00,2839E-2,5C000410,-0724,1066,10011,028.0,045.3,0.155,757.2,01.16,0.508
2014-05-14 00:53:00,2801E-2,5C000410,-0724,1067,9947,028.0,045.3,0.155,757.1,01.16,0.508
2014-05-14 00:54:00,2834E-2,5C000410,-0724,1065,9964,028.0,045.3,0.155,757.1,01.16,0.508
2014-05-14 00:55:00,2824E-2,5C000410,-0724,1066,9931,028.0,045.3,0.155,757.1,01.16,0.508
2014-05-14 00:56:00,2804E-2,5C000410,-0724,1066,9923,028.1,045.3,0.155,757.1,01.16,0.508
2014-05-14 00:57:00,2818E-2,5C000410,-0724,1065,10001,028.1,045.3,0.155,757.1,01.16,0.508
2014-05-14 00:58:00,2794E-2,5C000410,-0724,1065,9896,028.1,045.3,0.155,757.1,01.16,0.508
2014-05-14 00:59:00,2777E-2,5C000410,-0724,1065,9858,028.1,045.3,0.155,757.0,01.16,0.508
2014-05-14 01:00:00,2829E-2,5C000410,-0724,1066,9839,028.1,045.3,0.155,757.1,01.16,0.508
2014-05-14 01:01:00,2799E-2,5C000410,-0724,1065,9703,028.1,045.3,0.155,757.1,01.16,0.508
2014-05-14 01:02:00,2818E-2,5C000410,-0724,1065,9940,028.1,045.3,0.155,757.0,01.16,0.508
2014-05-14 01:03:00,2845E-2,5C000410,-0724,1065,9862,028.1,045.3,0.155,757.1,01.16,0.508
2014-05-14 01:04:00,2812E-2,5C000400,-0724,1066,10063,028.1,045.3,0.155,757.1,01.16,0.508
2014-05-14 01:05:00,2795E-2,5C000410,-0724,1065,9947,028.1,045.3,0.155,757.1,01.16,0.508
2014-05-14 01:06:00,2776E-2,5C000400,-0724,1066,10011,028.1,045.3,0.155,757.0,01.16,0.508
2014-05-14 01:07:00,2783E-2,5C000410,-0724,1066,9896,028.1,045.3,0.155,757.1,01.16,0.508
2014-05-14 01:08:00,2796E-2,5C000410,-0724,1066,10040,028.1,045.3,0.155,757.0,01.16,0.508
2014-05-14 01:09:00,2788E-2,5C000410,-0724,1067,9884,028.1,045.3,0.155,757.0,01.16,0.508
2014-05-14 01:10:00,2801E-2,5C000410,-0724,1066,9712,028.2,045.3,0.155,757.0,01.16,0.508
2014-05-14 01:11:00,2816E-2,5C000410,-0724,1066,9961,028.2,045.3,0.155,757.0,01.16,0.508
2014-05-14 01:12:00,2828E-2,5C000410,-0724,1066,9878,028.2,045.3,0.155,757.0,01.16,0.508
2014-05-14 01:13:00,2793E-2,5C000410,-0724,1065,9865,028.2,045.3,0.155,757.1,01.16,0.508
2014-05-14 01:14:00,2816E-2,5C000410,-0724,1066,9972,028.2,045.3,0.155,757.0,01.16,0.508
2014-05-14 01:15:00,2832E-2,5C000410,-0724,1067,9808,028.2,045.3,0.155,757.0,01.16,0.508
2014-05-14 01:16:00,2801E-2,5C000410,-0724,1066,9994,028.2,045.3,0.155,757.0,01.16,0.508
2014-05-14 01:17:00,2841E-2,5C000410,-0724,1066,9888,028.2,045.3,0.155,757.0,01.16,0.508
2014-05-14 01:18:00,2806E-2,5C000410,-0724,1065,9744,028.2,045.3,0.155,756.9,01.16,0.508
2014-05-14 01:19:00,2794E-2,5C000410,-0724,1065,9846,028.2,045.3,0.155,757.0,01.16,0.508
2014-05-14 01:20:00,2822E-2,5C000410,-0724,1066,9732,028.2,045.3,0.155,757.0,01.16,0.508
2014-05-14 01:21:00,2867E-2,5C000410,-0724,1066,9789,028.2,045.4,0.155,757.1,01.16,0.508
2014-05-14 01:22:00,2857E-2,5C000410,-0724,1065,9819,028.3,045.3,0.155,757.0,01.16,0.508
2014-05-14 01:23:00,2815E-2,5C000410,-0724,1066,9880,028.3,045.3,0.155,757.0,01.16,0.508
2014-05-14 01:24:00,2831E-2,5C000410,-0724,1065,9875,028.2,045.3,0.154,757.0,01.16,0.508
2014-05-14 01:25:00,2805E-2,5C000410,-0724,1066,9805,028.3,045.3,0.154,757.0,01.16,0.508
2014-05-14 01:26:00,2831E-2,5C000410,-0724,1065,9766,028.3,045.3,0.154,756.9,01.16,0.508
2014-05-14 01:27:00,2806E-2,5C000410,-0724,1065,9908,028.3,045.3,0.154,756.9,01.16,0.508
2014-05-14 01:28:00,2792E-2,5C000410,-0724,1064,9763,028.3,045.3,0.154,757.0,01.16,0.508
2014-05-14 01:29:00,2782E-2,5C000410,-0724,1065,9938,028.3,045.4,0.154,757.0,01.16,0.508
2014-05-14 01:30:00,2813E-2,5C000400,-0724,1067,9934,028.3,045.3,0.154,757.0,01.16,0.508
2014-05-14 01:31:00,2809E-2,5C000410,-0724,1066,9852,028.3,045.3,0.154,756.9,01.16,0.508
2014-05-14 01:32:00,2846E-2,5C000410,-0724,1066,9914,028.3,045.4,0.154,757.0,01.16,0.508
2014-05-14 01:33:00,2842E-2,5C000410,-0724,1065,9945,028.3,045.3,0.154,756.9,01.16,0.508
2014-05-14 01:34:00,2804E-2,5C000410,-0724,1064,10011,028.3,045.3,0.154,756.9,01.16,0.508
2014-05-14 01:35:00,2807E-2,5C000410,-0724,1065,9801,028.3,045.3,0.154,756.9,01.16,0.508
2014-05-14 01:36:00,2822E-2,5C000410,-0724,1065,9881,028.3,045.3,0.154,756.9,01.16,0.508
2014-05-14 01:37:00,2803E-2,5C000410,-0724,1065,9834,028.3,045.3,0.154,756.9,01.16,0.508
2014-05-14 01:38:00,2811E-2,5C000400,-0724,1066,9865,028.3,045.3,0.154,757.0,01.16,0.508
2014-05-14 01:39:00,2830E-2,5C000410,-0724,1066,9807,028.3,045.3,0.154,756.9,01.16,0.508
2014-05-14 01:40:00,2826E-2,5C000410,-0724,1065,9966,028.3,045.3,0.154,756.8,01.16,0.508
2014-05-14 01:41:00,2818E-2,5C000410,-0724,1066,9848,028.4,045.3,0.154,756.8,01.16,0.508
2014-05-14 01:42:00,2805E-2,5C000410,-0724,1066,9932,028.3,045.3,0.154,756.9,01.16,0.508
2014-05-14 01:43:00,2789E-2,5C000410,-0724,1066,9966,028.4,045.3,0.154,756.9,01.16,0.508
2014-05-14 01:44:00,2814E-2,5C000410,-0724,1065,9769,028.4,045.4,0.154,756.9,01.16,0.508
2014-05-14 01:45:00,2842E-2,5C000410,-0724,1066,9911,028.3,045.3,0.154,756.8,01.16,0.508
2014-05-14 01:46:00,2834E-2,5C000410,-0724,1065,9837,028.4,045.3,0.154,756.8,01.16,0.508
2014-05-14 01:47:00,2811E-2,5C000410,-0724,1065,9890,028.4,045.4,0.154,756.8,01.16,0.508
2014-05-14 01:48:00,2808E-2,5C000410,-0724,1064,9982,028.4,045.3,0.154,756.9,01.16,0.508
2014-05-14 01:49:00,2795E-2,5C000410,-0724,1064,9712,028.4,045.3,0.154,756.8,01.16,0.508
2014-05-14 01:50:00,2805E-2,5C000410,-0724,1064,10021,028.4,045.4,0.154,756.8,01.16,0.508
2014-05-14 01:51:00,2792E-2,5C000400,-0724,1064,9955,028.4,045.3,0.154,756.8,01.16,0.508
2014-05-14 01:52:00,2813E-2,5C000410,-0724,1063,9732,028.4,045.3,0.154,756.8,01.16,0.508
2014-05-14 01:53:00,2782E-2,5C000400,-0724,1065,9919,028.4,045.3,0.154,756.8,01.16,0.508
2014-05-14 01:54:00,2804E-2,5C000410,-0724,1066,9879,028.4,045.3,0.154,756.8,01.16,0.508
2014-05-14 01:55:00,2812E-2,5C000410,-0724,1064,9870,028.4,045.3,0.154,756.8,01.16,0.508
2014-05-14 01:56:00,2813E-2,5C000410,-0724,1066,9856,028.4,045.3,0.154,756.8,01.16,0.508
2014-05-14 01:57:00,2810E-2,5C000410,-0724,1065,9882,028.4,045.3,0.154,756.8,01.16,0.508
2014-05-14 01:58:00,2796E-2,5C000410,-0724,1064,9907,028.5,045.4,0.154,756.8,01.16,0.508
2014-05-14 01:59:00,2839E-2,5C000410,-0724,1064,10016,028.4,045.3,0.154,756.8,01.16,0.508
2014-05-14 02:00:00,2769E-2,5C000410,-0724,1065,9974,028.4,045.3,0.154,756.8,01.16,0.508
2014-05-14 02:01:00,2778E-2,5C000410,-0724,1065,9804,028.4,045.3,0.154,756.8,01.16,0.508
2014-05-14 02:02:00,2831E-2,5C000410,-0724,1065,9924,028.5,045.3,0.154,756.8,01.16,0.508
2014-05-14 02:03:00,2813E-2,5C000410,-0724,1064,9903,028.5,045.3,0.154,756.8,01.16,0.508
2014-05-14 02:04:00,2785E-2,5C000410,-0724,1064,9916,028.5,045.3,0.154,756.8,01.16,0.508
2014-05-14 02:05:00,2808E-2,5C000410,-0724,1065,9846,028.5,045.3,0.154,756.8,01.16,0.508
2014-05-14 02:06:00,2804E-2,5C000410,-0724,1065,9943,028.5,045.4,0.154,756.8,01.16,0.508
2014-05-14 02:07:00,2803E-2,5C000410,-0724,1065,9944,028.5,045.3,0.154,756.8,01.16,0.508
2014-05-14 02:08:00,2788E-2,5C000410,-0724,1064,9889,028.5,045.3,0.154,756.8,01.16,0.508
2014-05-14 02:09:00,2837E-2,5C000410,-0724,1063,9891,028.5,045.3,0.154,756.8,01.16,0.508
2014-05-14 02:10:00,2775E-2,5C000410,-0724,1065,9823,028.5,045.3,0.154,756.7,01.16,0.508
2014-05-14 02:11:00,2773E-2,5C000410,-0724,1065,9721,028.5,045.3,0.154,756.7,01.16,0.508
2014-05-14 02:12:00,2816E-2,5C000410,-0724,1063,9974,028.5,045.3,0.154,756.8,01.16,0.508
2014-05-14 02:13:00,2783E-2,5C000410,-0724,1064,10052,028.5,045.3,0.154,756.7,01.16,0.508
2014-05-14 02:14:00,2768E-2,5C000410,-0724,1064,9882,028.5,045.3,0.154,756.8,01.16,0.508
2014-05-14 02:15:00,2776E-2,5C000410,-0724,1066,9822,028.5,045.4,0.154,756.8,01.16,0.508
2014-05-14 02:16:00,2805E-2,5C000410,-0724,1064,9956,028.5,045.3,0.154,756.8,01.16,0.508
2014-05-14 02:17:00,2791E-2,5C000410,-0724,1064,9852,028.6,045.3,0.154,756.7,01.16,0.508
2014-05-14 02:18:00,2796E-2,5C000410,-0724,1064,9817,028.5,045.3,0.154,756.8,01.16,0.508
2014-05-14 02:19:00,2754E-2,5C000410,-0724,1065,9857,028.6,045.4,0.154,756.8,01.16,0.508
2014-05-14 02:20:00,2781E-2,5C000400,-0724,1065,10000,028.6,045.3,0.154,756.7,01.16,0.508
2014-05-14 02:21:00,2780E-2,5C000400,-0724,1065,10006,028.6,045.3,0.154,756.7,01.16,0.508
2014-05-14 02:22:00,2784E-2,5C000410,-0724,1065,9895,028.6,045.3,0.154,756.7,01.16,0.508
2014-05-14 02:23:00,2800E-2,5C000410,-0724,1065,9920,028.6,045.4,0.154,756.7,01.16,0.508
2014-05-14 02:24:00,2794E-2,5C000410,-0724,1065,9861,028.6,045.4,0.154,756.7,01.16,0.508
2014-05-14 02:25:00,2802E-2,5C000410,-0724,1065,9753,028.6,045.3,0.154,756.6,01.16,0.508
2014-05-14 02:26:00,2779E-2,5C000410,-0724,1064,9713,028.6,045.3,0.154,756.7,01.16,0.508
2014-05-14 02:27:00,2783E-2,5C000410,-0724,1064,9886,028.6,045.3,0.154,756.7,01.16,0.508
2014-05-14 02:28:00,2772E-2,5C000410,-0724,1065,9894,028.6,045.3,0.154,756.6,01.16,0.508
2014-05-14 02:29:00,2790E-2,5C000410,-0724,1066,9920,028.6,045.3,0.154,756.6,01.16,0.508
2014-05-14 02:30:00,2811E-2,5C000410,-0724,1065,9988,028.6,045.3,0.154,756.6,01.16,0.508
2014-05-14 02:31:00,2818E-2,5C000410,-0724,1065,9839,028.6,045.4,0.154,756.6,01.16,0.508
2014-05-14 02:32:00,2795E-2,5C000410,-0724,1064,9880,028.6,045.4,0.154,756.6,01.16,0.508
2014-05-14 02:33:00,2772E-2,5C000410,-0724,1066,10067,028.6,045.3,0.153,756.6,01.16,0.508
2014-05-14 02:34:00,2801E-2,5C000410,-0724,1065,9954,028.6,045.4,0.153,756.6,01.16,0.508
2014-05-14 02:35:00,2775E-2,5C000410,-0724,1064,9846,028.6,045.3,0.154,756.5,01.16,0.508
2014-05-14 02:36:00,2758E-2,5C000410,-0724,1065,9956,028.6,045.3,0.154,756.5,01.16,0.508
2014-05-14 02:37:00,2802E-2,5C000410,-0724,1065,9829,028.6,045.3,0.153,756.5,01.16,0.508
2014-05-14 02:38:00,2847E-2,5C000410,-0724,1065,9847,028.6,045.3,0.153,756.5,01.16,0.508
2014-05-14 02:39:00,2749E-2,5C000410,-0724,1065,9968,028.7,045.3,0.153,756.5,01.16,0.508
2014-05-14 02:40:00,2796E-2,5C000400,-0724,1063,10007,028.7,045.3,0.153,756.5,01.16,0.508
2014-05-14 02:41:00,2804E-2,5C000410,-0724,1064,9998,028.7,045.3,0.153,756.5,01.16,0.508
2014-05-14 02:42:00,2791E-2,5C000410,-0724,1063,9860,028.7,045.3,0.153,756.5,01.16,0.508
2014-05-14 02:43:00,2792E-2,5C000410,-0724,1064,9916,028.7,045.4,0.153,756.5,01.16,0.508
2014-05-14 02:44:00,2760E-2,5C000410,-0724,1064,9878,028.7,045.3,0.153,756.4,01.16,0.508
2014-05-14 02:45:00,2745E-2,5C000410,-0724,1064,9695,028.7,045.3,0.153,756.5,01.16,0.508
2014-05-14 02:46:00,2794E-2,5C000410,-0724,1065,9956,028.7,045.3,0.153,756.5,01.16,0.508
2014-05-14 02:47:00,2756E-2,5C000410,-0724,1063,10020,028.7,045.3,0.153,756.5,01.16,0.508
2014-05-14 02:48:00,2800E-2,5C000410,-0724,1064,9925,028.7,045.3,0.153,756.5,01.16,0.508
2014-05-14 02:49:00,2779E-2,5C000410,-0724,1064,10007,028.7,045.3,0.153,756.5,01.16,0.508
2014-05-14 02:50:00,2747E-2,5C000410,-0724,1065,9958,028.7,045.3,0.153,756.5,01.16,0.508
2014-05-14 02:51:00,2776E-2,5C000410,-0724,1065,9814,028.7,045.3,0.153,756.4,01.16,0.508
2014-05-14 02:52:00,2748E-2,5C000410,-0724,1065,10020,028.7,045.4,0.153,756.5,01.16,0.508
2014-05-14 02:53:00,2814E-2,5C000410,-0724,1064,9785,028.7,045.4,0.153,756.5,01.16,0.508
2014-05-14 02:54:00,2747E-2,5C000410,-0724,1064,9807,028.8,045.3,0.153,756.4,01.16,0.508
2014-05-14 02:55:00,2741E-2,5C000410,-0724,1064,9842,028.7,045.3,0.153,756.5,01.16,0.508
2014-05-14 02:56:00,2774E-2,5C000410,-0724,1065,10000,028.7,045.4,0.153,756.4,01.16,0.508
2014-05-14 02:57:00,2757E-2,5C000410,-0724,1063,9830,028.8,045.3,0.153,756.4,01.16,0.508
2014-05-14 02:58:00,2738E-2,5C000410,-0724,1064,9881,028.8,045.3,0.153,756.4,01.16,0.508
2014-05-14 02:59:00,2834E-2,5C000410,-0724,1064,9849,028.8,045.4,0.153,756.4,01.16,0.508
2014-05-14 03:00:00,2795E-2,5C000410,-0724,1064,9888,028.8,045.4,0.153,756.4,01.16,0.508
2014-05-14 03:01:00,2788E-2,5C000410,-0724,1064,9907,028.8,045.4,0.153,756.3,01.16,0.508
2014-05-14 03:02:00,2772E-2,5C000410,-0724,1065,9899,028.8,045.3,0.153,756.3,01.16,0.508
2014-05-14 03:03:00,2760E-2,5C000400,-0724,1063,10004,028.8,045.3,0.153,756.4,01.16,0.508
2014-05-14 03:04:00,2787E-2,5C000410,-0724,1065,9680,028.8,045.4,0.153,756.4,01.16,0.508
2014-05-14 03:05:00,2779E-2,5C000410,-0724,1063,9920,028.8,045.4,0.153,756.3,01.16,0.508
2014-05-14 03:06:00,2797E-2,5C000410,-0724,1064,9888,028.8,045.3,0.153,756.3,01.16,0.508
2014-05-14 03:07:00,2779E-2,5C000410,-0724,1064,9985,028.8,045.3,0.153,756.4,01.16,0.508
2014-05-14 03:08:00,2816E-2,5C000410,-0724,1064,10013,028.8,045.3,0.153,756.4,01.16,0.508
2014-05-14 03:09:00,2798E-2,5C000410,-0724,1064,9999,028.8,045.3,0.153,756.3,01.16,0.508
2014-05-14 03:10:00,2775E-2,5C000410,-0724,1064,9909,028.8,045.3,0.153,756.3,01.16,0.508
2014-05-14 03:11:00,2833E-2,5C000410,-0724,1063,9973,028.8,045.4,0.153,756.5,01.16,0.508
2014-05-14 03:12:00,2840E-2,5C000410,-0724,1063,9792,028.8,045.4,0.153,756.4,01.16,0.508
2014-05-14 03:13:00,2799E-2,5C000410,-0724,1063,10003,028.8,045.3,0.153,756.3,01.16,0.508
2014-05-14 03:14:00,2773E-2,5C000410,-0724,1065,9787,028.8,045.3,0.153,756.4,01.16,0.508
2014-05-14 03:15:00,2793E-2,5C000410,-0724,1064,9817,028.9,045.4,0.153,756.4,01.16,0.508
2014-05-14 03:16:00,2787E-2,5C000410,-0724,1064,10009,028.9,045.4,0.000,756.4,01.16,0.508
2014-05-14 03:17:00,2776E-2,5C000410,-0724,1064,9851,028.8,045.4,0.000,756.3,01.16,0.508
2014-05-14 03:18:00,2767E-2,5C000410,-0724,1064,9704,028.8,045.3,0.000,756.3,01.16,0.508
2014-05-14 03:19:00,2797E-2,5C000400,-0724,1064,10020,028.9,045.3,0.000,756.3,01.16,0.508
2014-05-14 03:20:00,2743E-2,5C000410,-0724,1064,9879,028.9,045.4,0.000,756.3,01.16,0.508
2014-05-14 03:21:00,2805E-2,5C000410,-0724,1063,9960,028.9,045.4,0.000,756.3,01.16,0.508
2014-05-14 03:22:00,2746E-2,5C000410,-0724,1065,9872,028.9,045.4,0.000,756.3,01.16,0.508
2014-05-14 03:23:00,2776E-2,5C000410,-0724,1063,9981,028.9,045.3,0.000,756.3,01.16,0.508
2014-05-14 03:24:00,2776E-2,5C000410,-0724,1064,9933,028.9,045.3,0.000,756.3,01.16,0.508
2014-05-14 03:25:00,2803E-2,5C000410,-0724,1063,9875,028.9,045.3,0.000,756.3,01.16,0.508
2014-05-14 03:26:00,2772E-2,5C000410,-0724,1065,9912,028.9,045.4,0.000,756.3,01.16,0.508
2014-05-14 03:27:00,2803E-2,5C000410,-0724,1064,9814,028.9,045.4,0.000,756.3,01.16,0.508
2014-05-14 03:28:00,2763E-2,5C000410,-0724,1063,9719,028.9,045.4,0.000,756.3,01.16,0.508
2014-05-14 03:29:00,2803E-2,5C000410,-0724,1064,9901,028.9,045.3,0.000,756.2,01.16,0.508
2014-05-14 03:30:00,2797E-2,5C000410,-0724,1064,9919,028.9,045.4,0.000,756.3,01.16,0.508
2014-05-14 03:31:00,2744E-2,5C000400,-0724,1064,9865,028.9,045.3,0.000,756.2,01.16,0.508
2014-05-14 03:32:00,2794E-2,5C000410,-0724,1063,9921,028.9,045.3,0.000,756.2,01.16,0.508
2014-05-14 03:33:00,2756E-2,5C000410,-0724,1064,9917,029.0,045.4,0.000,756.3,01.16,0.508
2014-05-14 03:34:00,2800E-2,5C000410,-0724,1064,9900,029.0,045.4,0.000,756.3,01.16,0.508
2014-05-14 03:35:00,2764E-2,5C000410,-0724,1063,9824,029.0,045.4,0.000,756.3,01.16,0.508
2014-05-14 03:36:00,2764E-2,5C000410,-0724,1063,9904,029.0,045.4,0.000,756.2,01.16,0.508
2014-05-14 03:37:00,2759E-2,5C000410,-0724,1065,10011,029.0,045.4,0.000,756.2,01.16,0.508
2014-05-14 03:38:00,2815E-2,5C000410,-0724,1064,9801,029.0,045.3,0.000,756.2,01.16,0.508
2014-05-14 03:39:00,2793E-2,5C000410,-0724,1064,9967,029.0,045.4,0.000,756.3,01.16,0.508
2014-05-14 03:40:00,2771E-2,5C000400,-0724,1065,10008,029.0,045.3,0.000,756.2,01.16,0.508
2014-05-14 03:41:00,2746E-2,5C000410,-0724,1066,9904,029.0,045.3,0.000,756.2,01.16,0.508
2014-05-14 03:42:00,2767E-2,5C000410,-0724,1064,9714,029.0,045.4,0.000,756.3,01.16,0.508
2014-05-14 03:43:00,2746E-2,5C000410,-0724,1064,9748,029.0,045.4,0.000,756.2,01.16,0.508
2014-05-14 03:44:00,2776E-2,5C000410,-0724,1064,9868,029.1,045.4,0.000,756.1,01.16,0.508
2014-05-14 03:45:00,2764E-2,5C000400,-0724,1065,9718,029.0,045.3,0.000,756.1,01.16,0.508
2014-05-14 03:46:00,2756E-2,5C000410,-0724,1065,9838,029.1,045.4,0.000,756.2,01.16,0.508
2014-05-14 03:47:00,2791E-2,5C000410,-0724,1063,9874,029.0,045.4,0.000,756.2,01.16,0.508
2014-05-14 03:48:00,2760E-2,5C000410,-0724,1065,9823,029.0,045.4,0.000,756.2,01.16,0.508
2014-05-14 03:49:00,2790E-2,5C000410,-0724,1064,10051,029.0,045.4,0.000,756.2,01.16,0.508
2014-05-14 03:50:00,2786E-2,5C000410,-0724,1064,9932,029.0,045.4,0.000,756.1,01.16,0.508
2014-05-14 03:51:00,2808E-2,5C000410,-0724,1064,9967,029.0,045.3,0.000,756.1,01.16,0.508
2014-05-14 03:52:00,2796E-2,5C000410,-0724,1064,9787,029.1,045.4,0.000,756.1,01.16,0.508
2014-05-14 03:53:00,2813E-2,5C000410,-0724,1066,9847,029.1,045.3,0.000,756.0,01.16,0.508
2014-05-14 03:54:00,2781E-2,5C000410,-0724,1066,9796,029.1,045.4,0.000,756.1,01.16,0.508
2014-05-14 03:55:00,2720E-2,5C000410,-0724,1064,9771,029.1,045.4,0.000,756.1,01.16,0.508
2014-05-14 03:56:00,2801E-2,5C000410,-0724,1064,9724,029.1,045.4,0.000,756.1,01.16,0.508
2014-05-14 03:57:00,2775E-2,5C000410,-0724,1065,9808,029.1,045.4,0.000,756.0,01.16,0.508
2014-05-14 03:58:00,2772E-2,5C000410,-0724,1064,9901,029.1,045.4,0.000,756.0,01.16,0.508
2014-05-14 03:59:00,2770E-2,5C000410,-0724,1065,9865,029.1,045.4,0.000,756.0,01.16,0.508
2014-05-14 04:00:00,2749E-2,5C000410,-0724,1065,9956,029.1,045.4,0.000,755.9,01.16,0.508
2014-05-14 04:01:00,2806E-2,5C000400,-0724,1064,10015,029.2,045.4,0.000,755.9,01.16,0.508
2014-05-14 04:02:00,2797E-2,5C000410,-0724,1065,9859,029.2,045.4,0.000,756.0,01.16,0.508
2014-05-14 04:03:00,2779E-2,5C000410,-0724,1065,9926,029.2,045.3,0.000,756.0,01.16,0.508
2014-05-14 04:04:00,2767E-2,5C000410,-0724,1065,9876,029.2,045.4,0.000,756.0,01.16,0.508
2014-05-14 04:05:00,2766E-2,5C000410,-0724,1064,9916,029.2,045.4,0.000,755.9,01.16,0.508
2014-05-14 04:06:00,2774E-2,5C000410,-0724,1064,10016,029.2,045.4,0.000,755.9,01.16,0.508
2014-05-14 04:07:00,2782E-2,5C000410,-0724,1065,9883,029.2,045.4,0.000,755.9,01.16,0.508
2014-05-14 04:08:00,2758E-2,5C000410,-0724,1064,9908,029.2,045.3,0.000,755.9,01.16,0.508
2014-05-14 04:09:00,2818E-2,5C000410,-0724,1066,9965,029.2,045.4,0.000,755.9,01.16,0.508
2014-05-14 04:10:00,2780E-2,5C000410,-0724,1065,9822,029.3,045.4,0.000,755.9,01.16,0.508
2014-05-14 04:11:00,2733E-2,5C000410,-0724,1064,9805,029.3,045.4,0.000,755.9,01.16,0.508
2014-05-14 04:12:00,2763E-2,5C000410,-0724,1063,9879,029.3,045.4,0.000,755.9,01.16,0.508
2014-05-14 04:13:00,2776E-2,5C000410,-0724,1065,9843,029.3,045.4,0.000,755.9,01.16,0.508
2014-05-14 04:14:00,2812E-2,5C000410,-0724,1066,9880,029.3,045.4,0.000,755.9,01.16,0.508
2014-05-14 04:15:00,2752E-2,5C000410,-0724,1064,9744,029.3,045.4,0.000,755.9,01.16,0.508
2014-05-14 04:16:00,2730E-2,5C000410,-0724,1064,9893,029.3,045.4,0.000,755.9,01.16,0.508
2014-05-14 04:17:00,2787E-2,5C000410,-0724,1065,9977,029.3,045.4,0.000,755.8,01.16,0.508
2014-05-14 04:18:00,2764E-2,5C000410,-0724,1063,9987,029.3,045.4,0.000,755.9,01.16,0.508
2014-05-14 04:19:00,2784E-2,5C000410,-0724,1066,9903,029.3,045.4,0.000,755.9,01.16,0.508
2014-05-14 04:20:00,2794E-2,5C000410,-0724,1065,9801,029.3,045.4,0.000,755.8,01.16,0.508
2014-05-14 04:21:00,2747E-2,5C000410,-0724,1065,9897,029.3,045.4,0.000,755.8,01.16,0.508
2014-05-14 04:22:00,2754E-2,5C000410,-0724,1066,9898,029.4,045.4,0.000,755.8,01.16,0.508
2014-05-14 04:23:00,2736E-2,5C000410,-0724,1066,9738,029.4,045.4,0.000,755.8,01.16,0.508